Time,TemperatureF,DewpointF,PressureIn,WindDirection,WindDirectionDegrees,WindSpeedMPH,WindSpeedGustMPH,Humidity,HourlyPrecipIn,Conditions,Clouds,dailyrainin,SolarRadiationWatts/m^2,SoftwareType,DateUTC
2013-03-14 00:22:00,38.0,25.0,-100.00,SE,138,0.0,4.0,59,0.00,,,0.00,1.000000,,2013-03-14 07:22:00,
2013-03-14 00:32:00,38.0,25.0,-100.00,SE,138,0.0,4.0,59,0.00,,,0.00,1.000000,,2013-03-14 07:32:00,
2013-03-14 00:42:00,38.0,25.0,-100.00,SE,138,0.0,4.0,59,0.00,,,0.00,1.000000,,2013-03-14 07:42:00,
2013-03-14 00:52:00,38.0,25.0,-100.00,SE,138,0.0,4.0,59,0.00,,,0.00,1.000000,,2013-03-14 07:52:00,
2013-03-14 01:21:00,36.0,28.0,-100.00,ENE,77,3.0,4.0,71,0.00,,,0.00,1.000000,,2013-03-14 08:21:00,
2013-03-14 01:32:00,36.0,28.0,-100.00,ENE,77,3.0,4.0,71,0.00,,,0.00,1.000000,,2013-03-14 08:32:00,
2013-03-14 01:41:00,36.0,28.0,-100.00,ENE,77,3.0,4.0,71,0.00,,,0.00,1.000000,,2013-03-14 08:41:00,
2013-03-14 01:51:00,36.0,28.0,-100.00,ENE,77,3.0,4.0,71,0.00,,,0.00,1.000000,,2013-03-14 08:51:00,
2013-03-14 02:22:00,37.0,27.0,-100.00,East,82,2.0,5.0,68,0.00,,,0.00,1.000000,,2013-03-14 09:22:00,
2013-03-14 02:32:00,37.0,27.0,-100.00,East,82,2.0,5.0,68,0.00,,,0.00,1.000000,,2013-03-14 09:32:00,
2013-03-14 02:42:00,37.0,27.0,-100.00,East,82,2.0,5.0,68,0.00,,,0.00,1.000000,,2013-03-14 09:42:00,
2013-03-14 02:51:00,37.0,27.0,-100.00,East,82,2.0,5.0,68,0.00,,,0.00,1.000000,,2013-03-14 09:51:00,
2013-03-14 03:22:00,34.0,29.0,-100.00,East,82,4.0,7.0,81,0.00,,,0.00,1.000000,,2013-03-14 10:22:00,
2013-03-14 03:32:00,34.0,29.0,-100.00,East,82,4.0,7.0,81,0.00,,,0.00,1.000000,,2013-03-14 10:32:00,
2013-03-14 03:42:00,34.0,29.0,-100.00,East,82,4.0,7.0,81,0.00,,,0.00,1.000000,,2013-03-14 10:42:00,
2013-03-14 03:52:00,34.0,29.0,-100.00,East,82,4.0,7.0,81,0.00,,,0.00,1.000000,,2013-03-14 10:52:00,
2013-03-14 04:12:00,36.0,28.0,-100.00,ENE,78,4.0,7.0,72,0.00,,,0.00,1.000000,,2013-03-14 11:12:00,
2013-03-14 04:22:00,36.0,28.0,-100.00,ENE,78,4.0,7.0,72,0.00,,,0.00,1.000000,,2013-03-14 11:22:00,
2013-03-14 04:32:00,36.0,28.0,-100.00,ENE,78,4.0,7.0,72,0.00,,,0.00,1.000000,,2013-03-14 11:32:00,
2013-03-14 04:42:00,36.0,28.0,-100.00,ENE,78,4.0,7.0,72,0.00,,,0.00,1.000000,,2013-03-14 11:42:00,
2013-03-14 04:52:00,36.0,28.0,-100.00,ENE,78,4.0,7.0,72,0.00,,,0.00,1.000000,,2013-03-14 11:52:00,
2013-03-14 05:22:00,33.0,28.0,-100.00,East,87,2.0,4.0,83,0.00,,,-99.99,1.000000,,2013-03-14 12:22:00,
2013-03-14 05:33:00,33.0,28.0,-100.00,East,87,2.0,4.0,83,0.00,,,-99.99,1.000000,,2013-03-14 12:33:00,
2013-03-14 05:42:00,33.0,28.0,-100.00,East,87,2.0,4.0,83,0.00,,,-99.99,1.000000,,2013-03-14 12:42:00,
2013-03-14 05:51:00,33.0,28.0,-100.00,East,87,2.0,4.0,83,0.00,,,-99.99,1.000000,,2013-03-14 12:51:00,
2013-03-14 06:22:00,34.0,28.0,-100.00,ENE,78,3.0,6.0,80,0.00,,,0.00,1.000000,,2013-03-14 13:22:00,
2013-03-14 06:32:00,34.0,28.0,-100.00,ENE,78,3.0,6.0,80,0.00,,,0.00,1.000000,,2013-03-14 13:32:00,
2013-03-14 06:42:00,34.0,28.0,-100.00,ENE,78,3.0,6.0,80,0.00,,,0.00,1.000000,,2013-03-14 13:42:00,
2013-03-14 06:52:00,34.0,28.0,-100.00,ENE,78,3.0,6.0,80,0.00,,,0.00,1.000000,,2013-03-14 13:52:00,
2013-03-14 07:22:00,34.0,28.0,-100.00,East,80,4.0,6.0,79,0.00,,,0.00,1.000000,,2013-03-14 14:22:00,
2013-03-14 07:32:00,34.0,28.0,-100.00,East,80,4.0,6.0,79,0.00,,,0.00,1.000000,,2013-03-14 14:32:00,
2013-03-14 07:42:00,34.0,28.0,-100.00,East,80,4.0,6.0,79,0.00,,,0.00,1.000000,,2013-03-14 14:42:00,
2013-03-14 07:52:00,34.0,28.0,-100.00,East,80,4.0,6.0,79,0.00,,,0.00,1.000000,,2013-03-14 14:52:00,
2013-03-14 08:22:00,35.0,29.0,-100.00,ENE,71,5.0,7.0,77,0.00,,,0.00,10.000000,,2013-03-14 15:22:00,
2013-03-14 08:32:00,35.0,29.0,-100.00,ENE,71,5.0,7.0,77,0.00,,,0.00,10.000000,,2013-03-14 15:32:00,
2013-03-14 08:42:00,35.0,29.0,-100.00,ENE,71,5.0,7.0,77,0.00,,,0.00,10.000000,,2013-03-14 15:42:00,
2013-03-14 08:52:00,35.0,29.0,-100.00,ENE,71,5.0,7.0,77,0.00,,,0.00,10.000000,,2013-03-14 15:52:00,
2013-03-14 09:22:00,39.0,31.0,-100.00,NNW,338,0.0,4.0,73,0.00,,,0.00,103.000000,,2013-03-14 16:22:00,
2013-03-14 09:32:00,39.0,31.0,-100.00,NNW,338,0.0,4.0,73,0.00,,,0.00,103.000000,,2013-03-14 16:32:00,
2013-03-14 09:42:00,39.0,31.0,-100.00,NNW,338,0.0,4.0,73,0.00,,,0.00,103.000000,,2013-03-14 16:42:00,
2013-03-14 09:52:00,39.0,31.0,-100.00,NNW,338,0.0,4.0,73,0.00,,,0.00,103.000000,,2013-03-14 16:52:00,
2013-03-14 10:23:00,43.0,33.0,-100.00,ENE,75,2.0,4.0,67,0.00,,,0.00,225.000000,,2013-03-14 17:23:00,
2013-03-14 10:32:00,43.0,33.0,-100.00,ENE,75,2.0,4.0,67,0.00,,,0.00,225.000000,,2013-03-14 17:32:00,
2013-03-14 10:42:00,43.0,33.0,-100.00,ENE,75,2.0,4.0,67,0.00,,,0.00,225.000000,,2013-03-14 17:42:00,
2013-03-14 10:52:00,43.0,33.0,-100.00,ENE,75,2.0,4.0,67,0.00,,,0.00,225.000000,,2013-03-14 17:52:00,
2013-03-14 11:22:00,49.0,34.0,-100.00,ENE,78,3.0,7.0,56,0.00,,,0.00,350.000000,,2013-03-14 18:22:00,
2013-03-14 11:32:00,49.0,34.0,-100.00,ENE,78,3.0,7.0,56,0.00,,,0.00,350.000000,,2013-03-14 18:32:00,
2013-03-14 11:42:00,49.0,34.0,-100.00,ENE,78,3.0,7.0,56,0.00,,,0.00,350.000000,,2013-03-14 18:42:00,
2013-03-14 11:52:00,49.0,34.0,-100.00,ENE,78,3.0,7.0,56,0.00,,,0.00,350.000000,,2013-03-14 18:52:00,
2013-03-14 12:22:00,50.0,36.0,-100.00,WNW,288,2.0,7.0,58,0.00,,,0.00,342.000000,,2013-03-14 19:22:00,
2013-03-14 12:32:00,50.0,36.0,-100.00,WNW,288,2.0,7.0,58,0.00,,,0.00,342.000000,,2013-03-14 19:32:00,
2013-03-14 12:42:00,50.0,36.0,-100.00,WNW,288,2.0,7.0,58,0.00,,,0.00,342.000000,,2013-03-14 19:42:00,
2013-03-14 12:52:00,50.0,36.0,-100.00,WNW,288,2.0,7.0,58,0.00,,,0.00,342.000000,,2013-03-14 19:52:00,
2013-03-14 14:22:00,64.0,29.0,-100.00,South,187,8.0,12.0,27,-99.99,,,0.00,610.000000,,2013-03-14 21:22:00,
2013-03-14 14:43:00,64.0,29.0,-100.00,South,187,8.0,12.0,27,-99.99,,,0.00,610.000000,,2013-03-14 21:43:00,
2013-03-14 14:52:00,64.0,29.0,-100.00,South,187,8.0,12.0,27,-99.99,,,0.00,610.000000,,2013-03-14 21:52:00,
2013-03-14 15:23:00,60.0,33.0,-100.00,WSW,244,7.0,16.0,36,0.00,,,0.00,514.000000,,2013-03-14 22:23:00,
2013-03-14 15:33:00,60.0,33.0,-100.00,WSW,244,7.0,16.0,36,0.00,,,0.00,514.000000,,2013-03-14 22:33:00,
2013-03-14 15:42:00,60.0,33.0,-100.00,WSW,244,7.0,16.0,36,0.00,,,0.00,514.000000,,2013-03-14 22:42:00,
2013-03-14 15:52:00,60.0,33.0,-100.00,WSW,244,7.0,16.0,36,0.00,,,0.00,514.000000,,2013-03-14 22:52:00,
2013-03-14 16:22:00,58.0,31.0,-100.00,WSW,251,7.0,12.0,35,0.00,,,0.00,372.000000,,2013-03-14 23:22:00,
2013-03-14 16:33:00,58.0,31.0,-100.00,WSW,251,7.0,12.0,35,0.00,,,0.00,372.000000,,2013-03-14 23:33:00,
2013-03-14 16:42:00,58.0,31.0,-100.00,WSW,251,7.0,12.0,35,0.00,,,0.00,372.000000,,2013-03-14 23:42:00,
2013-03-14 16:52:00,58.0,31.0,-100.00,WSW,251,7.0,12.0,35,0.00,,,0.00,372.000000,,2013-03-14 23:52:00,
2013-03-14 17:22:00,57.0,34.0,-100.00,WNW,299,8.0,13.0,41,0.00,,,0.00,250.000000,,2013-03-15 00:22:00,
2013-03-14 17:32:00,57.0,34.0,-100.00,WNW,299,8.0,13.0,41,0.00,,,0.00,250.000000,,2013-03-15 00:32:00,
2013-03-14 17:42:00,57.0,34.0,-100.00,WNW,299,8.0,13.0,41,0.00,,,0.00,250.000000,,2013-03-15 00:42:00,
2013-03-14 17:52:00,57.0,34.0,-100.00,WNW,299,8.0,13.0,41,0.00,,,0.00,250.000000,,2013-03-15 00:52:00,
2013-03-14 18:22:00,56.0,34.0,-100.00,North,354,2.0,10.0,44,0.00,,,0.00,179.000000,,2013-03-15 01:22:00,
2013-03-14 18:32:00,56.0,34.0,-100.00,North,354,2.0,10.0,44,0.00,,,0.00,179.000000,,2013-03-15 01:32:00,
2013-03-14 18:42:00,56.0,34.0,-100.00,North,354,2.0,10.0,44,0.00,,,0.00,179.000000,,2013-03-15 01:42:00,
2013-03-14 18:52:00,56.0,34.0,-100.00,North,354,2.0,10.0,44,0.00,,,0.00,179.000000,,2013-03-15 01:52:00,
2013-03-14 19:22:00,54.0,29.0,-100.00,WSW,250,9.0,15.0,38,0.00,,,0.00,90.000000,,2013-03-15 02:22:00,
2013-03-14 19:32:00,54.0,29.0,-100.00,WSW,250,9.0,15.0,38,0.00,,,0.00,90.000000,,2013-03-15 02:32:00,
2013-03-14 19:42:00,54.0,29.0,-100.00,WSW,250,9.0,15.0,38,0.00,,,0.00,90.000000,,2013-03-15 02:42:00,
2013-03-14 19:52:00,54.0,29.0,-100.00,WSW,250,9.0,15.0,38,0.00,,,0.00,90.000000,,2013-03-15 02:52:00,
2013-03-14 20:22:00,49.0,33.0,-100.00,West,279,10.0,15.0,54,0.00,,,0.00,7.000000,,2013-03-15 03:22:00,
2013-03-14 20:32:00,49.0,33.0,-100.00,West,279,10.0,15.0,54,0.00,,,0.00,7.000000,,2013-03-15 03:32:00,
2013-03-14 20:42:00,49.0,33.0,-100.00,West,279,10.0,15.0,54,0.00,,,0.00,7.000000,,2013-03-15 03:42:00,
2013-03-14 20:52:00,49.0,33.0,-100.00,West,279,10.0,15.0,54,0.00,,,0.00,7.000000,,2013-03-15 03:52:00,
2013-03-14 21:22:00,47.0,35.0,-100.00,WNW,292,6.0,19.0,62,0.00,,,0.00,1.000000,,2013-03-15 04:22:00,
2013-03-14 21:32:00,47.0,35.0,-100.00,WNW,292,6.0,19.0,62,0.00,,,0.00,1.000000,,2013-03-15 04:32:00,
2013-03-14 21:42:00,47.0,35.0,-100.00,WNW,292,6.0,19.0,62,0.00,,,0.00,1.000000,,2013-03-15 04:42:00,
2013-03-14 21:52:00,47.0,35.0,-100.00,WNW,292,6.0,19.0,62,0.00,,,0.00,1.000000,,2013-03-15 04:52:00,
2013-03-14 22:22:00,44.0,34.0,-100.00,SSW,195,2.0,7.0,68,0.00,,,0.00,1.000000,,2013-03-15 05:22:00,
2013-03-14 22:32:00,44.0,34.0,-100.00,SSW,195,2.0,7.0,68,0.00,,,0.00,1.000000,,2013-03-15 05:32:00,
2013-03-14 22:42:00,44.0,34.0,-100.00,SSW,195,2.0,7.0,68,0.00,,,0.00,1.000000,,2013-03-15 05:42:00,
2013-03-14 22:52:00,44.0,34.0,-100.00,SSW,195,2.0,7.0,68,0.00,,,0.00,1.000000,,2013-03-15 05:52:00,
2013-03-14 23:22:00,41.0,34.0,-100.00,East,82,2.0,4.0,77,0.00,,,0.00,1.000000,,2013-03-15 06:22:00,
2013-03-14 23:32:00,41.0,34.0,-100.00,East,82,2.0,4.0,77,0.00,,,0.00,1.000000,,2013-03-15 06:32:00,
2013-03-14 23:42:00,41.0,34.0,-100.00,East,82,2.0,4.0,77,0.00,,,0.00,1.000000,,2013-03-15 06:42:00,
2013-03-14 23:52:00,41.0,34.0,-100.00,East,82,2.0,4.0,77,0.00,,,0.00,1.000000,,2013-03-15 06:52:00,